Flag Weather past 2 weeks in Ellwangen (Jagst), Baden-Württemberg, Germany

Now
34 °F

Low clouds.


Feels Like: 30 °F
Forecast: 32 / 42 °F
Wind: 5 mph from Southeast

Location: Stoetten

Current Time: Nov 27, 2014 at 12:33:50 AM

Latest Report: Nov 27, 2014 at 12:00 AM


Visibility: 0 mi

Pressure: 29.98 "Hg

Humidity: 100%

Dew point: 34 °F

Location of Ellwangen (Jagst)Location

Historic Weather in Ellwangen (Jagst) — Graph

°F

Ellwangen (Jagst) temperature yesterday

Maximum temperature yesterday: 35 °F (at 3:00 PM)
Minimum temperature yesterday: 33 °F (at 6:00 AM)
Average temperature yesterday: 34 °F

Past Weeks' High & Low Weather Summary

 TemperatureHumidityPressure
High54 °F (Nov 24, 7:00 AM)100% (Nov 11, 11:00 PM)30.35 "Hg (Nov 11, 11:00 PM)
Low33 °F (Nov 26, 6:00 AM)61% (Nov 24, 7:00 AM)29.50 "Hg (Nov 16, 12:00 AM)
Average40 °F98%29.99 "Hg
* Reported Nov 11 11:00 PM — Nov 26 11:00 PM, Ellwangen (Jagst), Weather by CustomWeather, © 2014

Note: Actual official high and low records may vary slightly from our data, if they occured in-between our weather recording intervals... More about our weather records

Advertising

Ellwangen (Jagst) weather history for previous 24 hours

 ConditionsComfort  
Time TempWeatherWind HumidityBarometerVisibility
11:00 PM
Nov 26
34 °FLow clouds.5 mph100%29.99 "Hg0 mi
10:00 PM34 °FLow clouds.5 mph100%30.00 "Hg0 mi
9:00 PM34 °FFog.6 mph100%30.00 "Hg0 mi
8:00 PM34 °FFog.6 mph100%30.00 "Hg0 mi
7:00 PM34 °FFog.5 mph100%30.01 "Hg0 mi
6:00 PM34 °FFog.6 mph100%30.02 "Hg0 mi
5:00 PM35 °FFog.6 mph100%30.02 "Hg0 mi
4:00 PM35 °FFog.5 mph100%30.02 "Hg0 mi
3:00 PM35 °FFog.5 mph100%30.03 "Hg0 mi
2:00 PM35 °FFog.5 mph100%30.04 "Hg0 mi
1:00 PM35 °FFog.5 mph100%30.05 "Hg0 mi
12:00 PM34 °FFog.5 mph100%30.07 "Hg0 mi
11:00 AM34 °FFog.6 mph100%30.08 "Hg0 mi
10:00 AM34 °FFog.6 mph100%30.08 "Hg0 mi
9:00 AM34 °FFog.5 mph100%30.09 "Hg0 mi
8:00 AM34 °FFog.5 mph100%30.08 "Hg0 mi
7:00 AM34 °FFog.3 mph100%30.09 "Hg0 mi
6:00 AM33 °FFog.5 mph100%30.09 "Hg0 mi
5:00 AM34 °FLow clouds.5 mph100%30.09 "Hg0 mi
4:00 AM34 °FLow clouds.5 mph100%30.11 "Hg0 mi
3:00 AM34 °FLow clouds.5 mph100%30.11 "Hg0 mi
2:00 AM34 °FLow clouds.6 mph100%30.13 "Hg0 mi
1:00 AM35 °FLow clouds.7 mph100%30.14 "Hg0 mi
12:00 AM35 °FLow clouds.6 mph100%30.16 "Hg0 mi
Weather by CustomWeather, © 2014

See weather overviewHow to use our weather pages